DELTA 1 DEB

Satellite information

Favourite Embed

Satellite Type and Status

DEBRISIN ORBIT

Key statistics

Satellite DELTA 1 DEB at a glance.

Uptime

17231

Days in orbit

Revolutions

≈ 14.0

Per day

Orbit

SSO

Sun Synchronous Orbit

Inclination

98.9

Latest

Satellite identification and parameters

Extended collection of information and parameters for DELTA 1 DEB.

Object identification

Identified? True

Debris? True

Object name: DELTA 1 DEB

International designator: 1978-026CK

Object number (NORAD): 12242

Object ID (CCSDS): 12242

Country: UNITED STATES OF AMERICA (US)

Current information (Y/N): Y

RCS size: SMALL

Orbital parameters

Period: 102.905 minutes

Inclination: 98.9051 deg

SMA: 7274.185 km

Apoapsis: 943.085 km

Periapsis: 849.014 km

RAAN: 77.4457 deg

Eccentricy: 0.0064661

Argument of periapsis: 277.4083 deg

Mean anomaly: 81.9737 deg

Mean motion: 13.99349804 rev/day

Mean motion (dot): 0.00000527 rev/day2

B* drag term: 0.0003856 1/REarth

Two-line elements (TLE)

Creation date: May 8, 2025, 3:01 a.m.

Reference frame: TEME

Reference center: EARTH

Epoch: May 7, 2025, 8:02 p.m. UTC

TLE line 0: 0 DELTA 1 DEB

TLE line 1: 1 12242U 78026CK 25127.83507896 .00000527 00000-0 38560-3 0 9996

TLE line 2: 2 12242 98.9051 77.4457 0064661 277.4083 81.9737 13.99349804252838

Live tracking on map

Real-time ground track for satellite DELTA 1 DEB.

In-orbit conjunctions

A list of the most updated potential collisions computed for object DELTA 1 DEB.

Target Orbit TCA Probability of collision Miss distance Type
CZ-4 DEB SSO 2024-11-27 10:17:33 0.0001068996 191.0 (m) DEBRIS
METEOR 1-18 LEO 2024-07-24 11:28:49 0.0005777545 178.0 (m) PAYLOAD

Associated space launch

Earth observation satellite

DELTA 1 DEB was lifted into orbit during the mission ‘Delta 2910 | Landsat 3’, on board a Delta 2910 space rocket.

The launch took place on March 5, 1978, 5:54 p.m. from Space Launch Complex 2W.

For more information about the launch, click the button.

Launch to space Delta 2910 | Landsat 3
Delta 2910 | Landsat 3

Agency: N/A

Status: Launch Successful

Launch date: March 5, 1978, 5:54 p.m. UTC

Rocket: Delta 2910

Launch pad: Space Launch Complex 2W

Location: Vandenberg SFB, CA, USA

...

Latest news about this satellite

There are no fresh news available about this satellite. Check back as we update our databases every day.


Newsletter sign-up

Weekly statistics, charts and insights to help you stay on top of the space industry.